User: anonymous   Login
Location: Unspecified
(0.0000°N, 0.0000°E)
Time: 01:58:45
(UTC+00:00)
Language:

DIWATA 2B (PO-101) - Orbit

View from above orbital plane
View from above orbital plane
View from above satellite
View from above satellite

Ground track
Ground track

The orbit data is extracted from the following two-line orbital elements,

1 43678U 18084H   19345.77021414  .00000387  00000-0  44214-4 0  9994
2 43678  97.8671  99.4385 0011426  81.7433 278.5078 14.91595173 60891
Epoch (UTC): 11 December 2019 18:29:06
Eccentricity: 0.0011426
inclination: 97.8671°
perigee height: 585 km
apogee height: 601 km
right ascension of ascending node: 99.4385°
argument of perigee: 81.7433°
revolutions per day: 14.91595173
mean anomaly at epoch: 278.5078°
orbit number at epoch: 6089

The dashed part of the orbit path shows where the satellite is in the earth's shadow,  

DLR